Weather History for Aurora, NE

Change the Weather History Date:

Thursday, December 13, 2012

  Actual Average Record
Temperature  
Mean Temperature 38 °F -  
Max Temperature 53 °F 39 °F 61 °F (1980)
Min Temperature 23 °F 17 °F -12 °F (1985)
Degree Days  
Heating Degree Days 26    
Moisture  
Dew Point 19 °F    
Average Humidity 52    
Maximum Humidity 76    
Minimum Humidity 31    
Precipitation  
Precipitation 0.00 in - - ()
Sea Level Pressure  
Sea Level Pressure 29.99 in    
Wind  
Wind Speed 10 mph (SSE)    
Max Wind Speed 15 mph    
Max Gust Speed 22 mph    
Visibility 10 miles    
Events      
Averages and records for this station are not official NWS values.
T = Trace of Precipitation, MM = Missing Value Source: NWS Daily Summary

Daily Weather History Graph

Daily Weather History Graph

Search for Another Location

Airport:

Trip Planner

Search our weather history database for the weather conditions in past years. The results will help you decide how hot, cold, wet, or windy it might be!

Date:

Astronomy

Dec. 13, 2012 Rise Set
Actual Time 7:48 AM CST 5:04 PM CST
Civil Twilight 7:17 AM CST 5:35 PM CST
Nautical Twilight 6:42 AM CST 6:10 PM CST
Astronomical Twilight 6:09 AM CST 6:43 PM CST
Moon 7:58 AM CST (12/13) 5:48 PM CST (12/13)
Length of Visible Light 10h 18m
Length of Day
9h 16m
New Moon, 0% of the Moon is Illuminated
Dec 13
New Moon
Dec 19
First Quarter
Dec 28
Full
Jan 4
Last Quarter
Jan 11
New

Hourly Weather History & Observations

Time (CST) Temp. Windchill Dew Point Humidity Pressure Visibility Wind Dir Wind Speed Gust Speed Precip Events Conditions
12:15 AM 35.6 °F 26.2 °F 15.8 °F 44% 29.91 in 10.0 mi SSW 15.0 mph - N/A   Clear
12:35 AM 35.4 °F 26.0 °F 16.2 °F 46% 29.90 in 10.0 mi South 15.0 mph 21.9 mph N/A   Clear
12:55 AM 35.6 °F 26.2 °F 16.3 °F 46% 29.90 in 10.0 mi SSW 15.0 mph 20.7 mph N/A   Clear
1:15 AM 34.3 °F 24.6 °F 16.3 °F 48% 29.91 in 10.0 mi SSW 15.0 mph - N/A   Clear
1:35 AM 33.6 °F 24.6 °F 16.5 °F 50% 29.91 in 10.0 mi SSW 12.7 mph 18.4 mph N/A   Clear
1:55 AM 33.4 °F 24.3 °F 16.7 °F 50% 29.91 in 10.0 mi SSW 12.7 mph - N/A   Clear
2:15 AM 33.1 °F 23.9 °F 16.7 °F 51% 29.91 in 10.0 mi SSW 12.7 mph - N/A   Clear
2:35 AM 32.9 °F 24.1 °F 17.1 °F 52% 29.91 in 10.0 mi SSW 11.5 mph - N/A   Clear
2:55 AM 33.3 °F 24.6 °F 17.2 °F 52% 29.92 in 10.0 mi SSW 11.5 mph - N/A   Clear
3:15 AM 32.5 °F 23.7 °F 17.2 °F 53% 29.93 in 10.0 mi SSW 11.5 mph - N/A   Clear
3:35 AM 31.6 °F 22.6 °F 17.1 °F 55% 29.92 in 10.0 mi SSW 11.5 mph - N/A   Clear
3:55 AM 32.0 °F 23.0 °F 17.4 °F 55% 29.92 in 10.0 mi SSW 11.5 mph - N/A   Clear
4:15 AM 32.0 °F 23.6 °F 17.6 °F 55% 29.92 in 10.0 mi SSW 10.4 mph - N/A   Clear
4:35 AM 30.9 °F 24.3 °F 17.6 °F 58% 29.93 in 10.0 mi SW 6.9 mph - N/A   Clear
4:55 AM 29.8 °F 21.5 °F 17.4 °F 60% 29.93 in 10.0 mi SW 9.2 mph - N/A   Clear
5:15 AM 28.2 °F 20.2 °F 16.7 °F 62% 29.93 in 10.0 mi SW 8.1 mph - N/A   Clear
5:35 AM 28.2 °F 18.9 °F 16.9 °F 63% 29.94 in 10.0 mi SW 10.4 mph - N/A   Clear
6:15 AM 26.1 °F 18.4 °F 16.0 °F 66% 29.95 in 10.0 mi SW 6.9 mph - N/A   Clear
6:35 AM 25.0 °F 17.1 °F 16.0 °F 69% 29.96 in 10.0 mi SW 6.9 mph - N/A   Clear
6:55 AM 25.0 °F 16.3 °F 15.6 °F 68% 29.97 in 10.0 mi SW 8.1 mph - N/A   Clear
7:15 AM 25.0 °F 17.1 °F 15.4 °F 67% 29.97 in 10.0 mi SW 6.9 mph - N/A   Clear
7:35 AM 24.8 °F 16.9 °F 15.4 °F 68% 29.97 in 10.0 mi SW 6.9 mph - N/A   Clear
7:55 AM 25.5 °F 16.2 °F 15.8 °F 67% 29.98 in 10.0 mi SW 9.2 mph - N/A   Clear
8:15 AM 27.1 °F 18.9 °F 16.2 °F 63% 29.99 in 10.0 mi SW 8.1 mph - N/A   Clear
8:35 AM 28.8 °F 21.7 °F 16.7 °F 61% 29.99 in 10.0 mi SW 6.9 mph - N/A   Clear
8:55 AM 31.5 °F 24.9 °F 17.6 °F 57% 29.99 in 10.0 mi SW 6.9 mph - N/A   Clear
9:15 AM 33.1 °F 27.7 °F 18.3 °F 55% 30.00 in 10.0 mi WSW 5.8 mph - N/A   Clear
9:35 AM 36.3 °F 29.5 °F 18.7 °F 49% 30.01 in 10.0 mi SW 9.2 mph - N/A   Clear
9:55 AM 38.8 °F 34.6 °F 19.2 °F 45% 30.02 in 10.0 mi West 5.8 mph - N/A   Clear
10:15 AM 41.4 °F 37.6 °F 19.6 °F 42% 30.03 in 10.0 mi WNW 5.8 mph - N/A   Clear
10:35 AM 45.3 °F 42.3 °F 19.8 °F 36% 30.03 in 10.0 mi WNW 5.8 mph - N/A   Clear
10:55 AM 47.5 °F - 20.1 °F 34% 30.03 in 10.0 mi NNW 6.9 mph - N/A   Clear
11:15 AM 49.3 °F - 21.0 °F 33% 30.03 in 10.0 mi North 9.2 mph - N/A   Clear
11:35 AM 48.7 °F - 21.0 °F 34% 30.03 in 10.0 mi North 10.4 mph - N/A   Clear
11:55 AM 49.3 °F - 21.6 °F 34% 30.02 in 10.0 mi North 6.9 mph - N/A   Clear
12:15 PM 50.9 °F - 22.3 °F 33% 30.02 in 10.0 mi NNE 5.8 mph - N/A   Clear
12:35 PM 50.5 °F - 22.1 °F 33% 30.01 in 10.0 mi NNE 5.8 mph - N/A   Clear
12:55 PM 51.3 °F - 22.3 °F 32% 30.01 in 10.0 mi North 5.8 mph - N/A   Clear
1:15 PM 51.3 °F - 22.5 °F 32% 30.01 in 10.0 mi Calm Calm - N/A   Clear
1:35 PM 51.4 °F - 22.6 °F 32% 30.01 in 10.0 mi NNE 3.5 mph - N/A   Clear
1:55 PM 51.8 °F - 22.6 °F 32% 30.01 in 10.0 mi NE 3.5 mph - N/A   Clear
2:15 PM 53.1 °F - 23.0 °F 31% 30.01 in 10.0 mi North 3.5 mph - N/A   Clear
2:35 PM 52.7 °F - 23.0 °F 31% 30.00 in 10.0 mi ENE 3.5 mph - N/A   Clear
2:55 PM 52.9 °F - 23.0 °F 31% 30.00 in 10.0 mi NNE 3.5 mph - N/A   Clear
3:15 PM 52.5 °F - 23.4 °F 32% 30.00 in 10.0 mi NE 6.9 mph - N/A   Clear
3:35 PM 51.6 °F - 23.2 °F 33% 30.01 in 10.0 mi NNE 4.6 mph - N/A   Clear
3:55 PM 50.7 °F - 23.0 °F 34% 30.01 in 10.0 mi NE 4.6 mph - N/A   Clear
4:15 PM 48.6 °F - 22.5 °F 36% 30.01 in 10.0 mi NE 4.6 mph - N/A   Clear
4:35 PM 46.0 °F 43.1 °F 22.1 °F 39% 30.01 in 10.0 mi ENE 5.8 mph - N/A   Clear
6:15 PM 36.3 °F 30.1 °F 19.9 °F 52% 30.03 in 10.0 mi ENE 8.1 mph - N/A   Clear
7:15 PM 32.0 °F 25.6 °F 20.3 °F 62% 30.03 in 10.0 mi East 6.9 mph - N/A   Clear
7:35 PM 31.6 °F 27.0 °F 19.9 °F 62% 30.03 in 10.0 mi East 4.6 mph - N/A   Clear
7:55 PM 31.3 °F 23.9 °F 20.3 °F 64% 30.03 in 10.0 mi East 8.1 mph - N/A   Clear
8:15 PM 30.7 °F 24.9 °F 20.3 °F 65% 30.03 in 10.0 mi ENE 5.8 mph - N/A   Clear
8:35 PM 30.2 °F 23.4 °F 20.7 °F 68% 30.03 in 10.0 mi East 6.9 mph - N/A   Clear
8:55 PM 30.9 °F 26.2 °F 20.7 °F 66% 30.03 in 10.0 mi ENE 4.6 mph - N/A   Clear
9:15 PM 26.8 °F 19.3 °F 18.5 °F 71% 30.03 in 10.0 mi ENE 6.9 mph - N/A   Clear
9:35 PM 28.0 °F 20.8 °F 19.6 °F 71% 30.02 in 10.0 mi East 6.9 mph - N/A   Clear
9:55 PM 28.2 °F 21.0 °F 19.9 °F 71% 30.01 in 10.0 mi East 6.9 mph - N/A   Clear
10:15 PM 28.2 °F 23.1 °F 19.6 °F 70% 30.02 in 10.0 mi East 4.6 mph - N/A   Clear
10:35 PM 27.1 °F 21.8 °F 19.2 °F 72% 30.02 in 10.0 mi East 4.6 mph - N/A   Clear
10:55 PM 27.7 °F 21.3 °F 19.6 °F 72% 30.02 in 10.0 mi ESE 5.8 mph - N/A   Clear
11:15 PM 28.0 °F 21.7 °F 19.9 °F 72% 30.01 in 10.0 mi East 5.8 mph - N/A   Clear
11:35 PM 23.7 °F 16.6 °F 17.2 °F 76% 30.01 in 10.0 mi East 5.8 mph - N/A   Clear